FW0237 Tampa FL US current weather conditions

sailwx.info

Wind from 244 at 0 knots gusting 2

Air temperature 2.8° C
Dewpoint -1.8° C

Last reported at 2018-Dec-12 02:09 UTC.
Time now 2018-Dec-12 02:40 UTC

Location: N 27°52' W 082°31'.
View on Google Maps.

See reports from other nearby stations

  
Tides and Currents Weather Stations Pressure Air Temp Water Temp Dewpoint Dewpoint Depression Visibility Wind Speed Wind Dir Waves Ship Positions
date/time (UTC)wind fromknots sea level pressurealtimeterstation pressurevisibilityair tempwater tempwave heightnotes
2018-Dec-12 02:09 244 0 gusting 2 2.8
2018-Dec-12 02:04 257 0 gusting 5 2.8
2018-Dec-12 01:59 238 0 gusting 5 2.8
2018-Dec-12 01:54 221 0 gusting 3 2.8
2018-Dec-12 01:49 221 1 gusting 7 2.8
2018-Dec-12 01:44 252 0 gusting 7 2.8
2018-Dec-12 01:39 198 2.8
2018-Dec-12 01:34 197 3.3
2018-Dec-12 01:29 223 0 gusting 2 3.3
2018-Dec-12 01:24 217 0 gusting 3 3.3
2018-Dec-12 01:19 263 0 gusting 3 3.3
2018-Dec-12 01:14 197 0 gusting 2 3.3
2018-Dec-12 01:09 257 0 gusting 3 3.3
2018-Dec-12 01:04 257 0 gusting 3 3.3
2018-Dec-12 00:59 247 0 gusting 3 3.3
2018-Dec-12 00:54 279 0 gusting 4 3.9
2018-Dec-12 00:49 260 0 gusting 4 3.9
2018-Dec-12 00:44 260 1 gusting 5 3.9
2018-Dec-12 00:39 238 1 gusting 6 3.9
2018-Dec-12 00:34 243 1 gusting 6 3.9
2018-Dec-12 00:29 286 1 gusting 6 3.9
2018-Dec-12 00:24 281 1 gusting 6 3.9
2018-Dec-12 00:19 298 1 gusting 5 3.9
2018-Dec-12 00:14 233 1 gusting 5 3.9
2018-Dec-12 00:09 279 0 gusting 5 3.9
2018-Dec-12 00:04 253 0 gusting 2 4.4
2018-Dec-11 23:59 275 0 gusting 3 4.4
2018-Dec-11 23:54 275 0 gusting 3 4.4
2018-Dec-11 23:49 209 0 gusting 3 4.4
2018-Dec-11 23:44 203 0 gusting 3 4.4
2018-Dec-11 23:39 267 0 gusting 3 4.4
2018-Dec-11 23:34 253 0 gusting 3 4.4
2018-Dec-11 23:29 256 0 gusting 4 4.4
2018-Dec-11 23:24 256 0 gusting 4 4.4
2018-Dec-11 23:19 259 0 gusting 4 4.4
2018-Dec-11 23:14 263 0 gusting 4 4.4
2018-Dec-11 23:09 279 0 gusting 3 5.0
2018-Dec-11 23:04 288 1 gusting 3 5.0
2018-Dec-11 22:59 272 0 gusting 3 5.0
2018-Dec-11 22:54 267 1 gusting 3 5.0
2018-Dec-11 22:49 265 1 gusting 3 5.0
2018-Dec-11 22:44 254 1 gusting 3 5.0
2018-Dec-11 22:39 261 0 gusting 3 5.0
2018-Dec-11 22:34 256 0 gusting 2 5.0
2018-Dec-11 22:29 255 0 gusting 3 5.0
2018-Dec-11 22:24 279 0 gusting 3 5.0
2018-Dec-11 22:19 261 0 gusting 3 5.0
2018-Dec-11 22:14 245 0 gusting 3 5.0
2018-Dec-11 22:09 290 0 gusting 5 5.6
2018-Dec-11 22:04 296 1 gusting 6 5.6
2018-Dec-11 21:58 266 1 gusting 6 5.6
2018-Dec-11 21:53 285 1 gusting 6 5.6
2018-Dec-11 21:48 277 1 gusting 6 5.6
2018-Dec-11 21:43 296 1 gusting 6 5.6
2018-Dec-11 21:38 324 1 gusting 6 5.6
2018-Dec-11 21:33 269 1 gusting 6 6.1
2018-Dec-11 21:28 272 1 gusting 6 6.1
2018-Dec-11 21:23 276 2 gusting 7 6.1
2018-Dec-11 21:18 281 2 gusting 7 6.1
2018-Dec-11 21:13 281 2 gusting 7 6.1
2018-Dec-11 21:08 303 1 gusting 6 6.1
2018-Dec-11 21:03 288 1 gusting 8 6.1
2018-Dec-11 20:58 269 2 gusting 8 6.1
2018-Dec-11 20:53 355 2 gusting 8 6.1
2018-Dec-11 20:48 312 3 gusting 8 6.1
2018-Dec-11 20:43 285 2 gusting 7 6.1
2018-Dec-11 20:38 284 2 gusting 7 6.1
2018-Dec-11 20:33 338 2 gusting 9 6.1
2018-Dec-11 20:28 281 2 gusting 9 6.7
2018-Dec-11 20:23 290 3 gusting 9 6.7
2018-Dec-11 20:18 281 2 gusting 9 6.7
2018-Dec-11 20:13 343 1 gusting 7 6.7
2018-Dec-11 20:08 351 2 gusting 7 6.7
2018-Dec-11 20:03 298 2 gusting 8 6.7
2018-Dec-11 19:58 297 2 gusting 8 6.7
2018-Dec-11 19:53 341 2 gusting 7 6.7
2018-Dec-11 19:48 269 3 gusting 10 6.7
2018-Dec-11 19:43 271 3 gusting 10 6.7
2018-Dec-11 19:38 264 3 gusting 11 6.7
2018-Dec-11 19:33 288 3 gusting 11 6.7
2018-Dec-11 19:28 263 3 gusting 10 6.7
2018-Dec-11 19:23 234 2 gusting 10 6.7
2018-Dec-11 19:19 320 2 gusting 8 6.7
2018-Dec-11 19:13 331 2 gusting 8 6.7
2018-Dec-11 19:08 297 2 gusting 8 6.7
2018-Dec-11 19:03 210 2 gusting 8 6.7
2018-Dec-11 18:58 280 2 gusting 10 6.7
2018-Dec-11 18:53 311 2 gusting 10 6.7
2018-Dec-11 18:48 342 2 gusting 8 6.7
2018-Dec-11 18:43 298 3 gusting 9 6.7
2018-Dec-11 18:38 270 2 gusting 9 6.7
2018-Dec-11 18:33 351 3 gusting 9 6.7
2018-Dec-11 18:28 6.7
2018-Dec-11 18:23 309 1 gusting 6 6.7
2018-Dec-11 18:18 284 2 gusting 7 6.7
2018-Dec-11 18:13 287 3 gusting 7 6.7
2018-Dec-11 18:08 274 1 gusting 6 6.7
2018-Dec-11 18:03 261 0 gusting 6 6.7
2018-Dec-11 17:58 278 0 gusting 5 6.7
2018-Dec-11 17:53 334 1 gusting 6 6.7
2018-Dec-11 17:48 296 1 gusting 6 6.7
2018-Dec-11 17:43 351 1 gusting 6 6.7
2018-Dec-11 17:38 267 1 gusting 6 6.7
2018-Dec-11 17:33 306 1 gusting 5 6.1
2018-Dec-11 17:28 355 3 gusting 7 6.1
2018-Dec-11 17:23 019 3 gusting 9 6.1
2018-Dec-11 17:18 022 2 gusting 9 6.1
2018-Dec-11 17:13 337 1 gusting 7 6.7
2018-Dec-11 17:08 296 2 gusting 6 6.7
2018-Dec-11 17:03 009 3 gusting 8 6.1
2018-Dec-11 16:58 321 3 gusting 9 5.6
2018-Dec-11 16:53 355 3 gusting 9 5.6
2018-Dec-11 16:48 321 3 gusting 8 6.1
2018-Dec-11 16:43 264 2 gusting 8 6.1
2018-Dec-11 16:38 351 3 gusting 10 6.1
2018-Dec-11 16:33 340 3 gusting 10 5.6
2018-Dec-11 16:28 017 2 gusting 9 6.1
2018-Dec-11 16:23 355 4 gusting 9 5.6
2018-Dec-11 16:18 355 4 gusting 9 5.6
2018-Dec-11 16:13 017 3 gusting 9 5.0
2018-Dec-11 16:08 058 4 gusting 9 5.6
2018-Dec-11 16:03 330 2 gusting 9 5.0
2018-Dec-11 15:58 5.6
2018-Dec-11 15:53 343 4 gusting 8 5.0
2018-Dec-11 15:48 324 4 gusting 12 5.0
2018-Dec-11 15:43 017 5 gusting 12 5.0
2018-Dec-11 15:38 321 5 gusting 10 4.4
2018-Dec-11 15:33 010 4 gusting 8 5.0
2018-Dec-11 15:28 351 3 gusting 8 4.4
2018-Dec-11 15:23 019 2 gusting 8 5.0
2018-Dec-11 15:18 290 3 gusting 9 5.0
2018-Dec-11 15:13 342 3 gusting 9 4.4
2018-Dec-11 15:08 313 2 gusting 9 4.4
2018-Dec-11 15:03 345 2 gusting 9 4.4
2018-Dec-11 14:58 296 1 gusting 7 4.4
2018-Dec-11 14:53 030 1 gusting 6 4.4
2018-Dec-11 14:48 4.4
2018-Dec-11 14:43 286 2 gusting 9 4.4
2018-Dec-11 14:38 336 2 gusting 9 3.9
2018-Dec-11 14:33 350 2 gusting 9 3.9
2018-Dec-11 14:28 343 3 gusting 11 3.9
2018-Dec-11 14:23 322 3 gusting 11 3.9
2018-Dec-11 14:18 302 2 gusting 9 3.9
2018-Dec-11 14:13 355 1 gusting 8 3.9
2018-Dec-11 14:08 322 1 gusting 6 3.3
2018-Dec-11 14:03 324 2 gusting 7 3.3
2018-Dec-11 13:58 061 2 gusting 7 3.3
2018-Dec-11 13:53 325 2 gusting 9 3.3
2018-Dec-11 13:48 328 1 gusting 9 2.8
2018-Dec-11 13:43 040 1 gusting 7 2.8
2018-Dec-11 13:38 304 1 gusting 7 2.8
2018-Dec-11 13:33 005 1 gusting 7 2.8
2018-Dec-11 13:28 279 1 gusting 7 2.8
2018-Dec-11 13:23 320 0 gusting 5 2.8
2018-Dec-11 13:18 323 0 gusting 5 2.8
2018-Dec-11 13:13 005 0 gusting 3 2.8
2018-Dec-11 13:08 010 0 gusting 6 2.2
2018-Dec-11 13:03 288 0 gusting 6 2.2
2018-Dec-11 12:58 333 1 gusting 6 2.8
2018-Dec-11 12:53 347 1 gusting 6 2.8
2018-Dec-11 12:48 322 0 gusting 6 2.8
2018-Dec-11 12:43 323 0 gusting 6 2.8
2018-Dec-11 12:38 286 0 gusting 6 2.8
2018-Dec-11 12:33 314 0 gusting 7 2.8
2018-Dec-11 12:28 325 1 gusting 7 2.8
2018-Dec-11 12:23 294 0 gusting 7 2.8
2018-Dec-11 12:18 355 0 gusting 5 2.8
2018-Dec-11 12:13 328 0 gusting 5 2.8
2018-Dec-11 12:08 329 0 gusting 5 2.8
2018-Dec-11 12:03 306 1 gusting 5 2.8
2018-Dec-11 11:58 313 1 gusting 5 2.8
2018-Dec-11 11:53 322 1 gusting 5 2.8
2018-Dec-11 11:48 327 1 gusting 6 2.8
2018-Dec-11 11:43 025 2 gusting 6 2.8
2018-Dec-11 11:38 3.3
2018-Dec-11 11:33 319 1 gusting 9 3.3
2018-Dec-11 11:28 046 1 gusting 6 3.3
2018-Dec-11 11:23 030 2 gusting 8 3.3
2018-Dec-11 11:18 009 2 gusting 8 2.8
2018-Dec-11 11:13 355 2 gusting 6 3.3
2018-Dec-11 11:08 327 2 gusting 6 3.3
2018-Dec-11 11:03 032 3 gusting 9 2.8
2018-Dec-11 10:58 336 3 gusting 9 3.3
2018-Dec-11 10:53 011 2 gusting 7 3.3
2018-Dec-11 10:48 355 2 gusting 7 3.3
2018-Dec-11 10:43 330 3 gusting 9 3.3
2018-Dec-11 10:38 341 3 gusting 9 3.3
2018-Dec-11 10:33 021 3 gusting 8 3.3
2018-Dec-11 10:28 3.3
2018-Dec-11 10:23 3.3
2018-Dec-11 10:18 3.3
2018-Dec-11 10:13 333 3 gusting 9 3.3
2018-Dec-11 10:08 355 3 gusting 9 3.3
2018-Dec-11 10:03 329 4 gusting 12 3.3
2018-Dec-11 09:58 332 4 gusting 12 3.3
2018-Dec-11 09:53 025 3 gusting 10 3.3
2018-Dec-11 09:48 025 3 gusting 10 3.3
2018-Dec-11 09:43 050 3 gusting 10 3.3
2018-Dec-11 09:38 340 3 gusting 10 3.3
2018-Dec-11 09:33 310 2 gusting 10 3.3
2018-Dec-11 09:28 319 3 gusting 12 3.3
2018-Dec-11 09:23 343 4 gusting 12 3.3
2018-Dec-11 09:18 355 4 gusting 11 2.8
2018-Dec-11 09:13 019 4 gusting 11 2.8
2018-Dec-11 09:08 346 5 gusting 13 2.8
2018-Dec-11 09:03 324 4 gusting 13 2.8
2018-Dec-11 08:58 355 2 gusting 7 2.8
2018-Dec-11 08:53 348 2 gusting 8 3.3
2018-Dec-11 08:48 063 1 gusting 8 3.3
2018-Dec-11 08:43 331 3 gusting 9 3.3
2018-Dec-11 08:38 011 3 gusting 9 3.3
2018-Dec-11 08:33 325 1 gusting 7 3.3
2018-Dec-11 08:28 005 2 gusting 8 3.3
2018-Dec-11 08:23 355 2 gusting 8 3.3
2018-Dec-11 08:18 349 2 gusting 7 3.3
2018-Dec-11 08:13 028 2 gusting 11 3.3
2018-Dec-11 08:08 333 2 gusting 11 3.3
2018-Dec-11 08:03 005 2 gusting 8 3.9
2018-Dec-11 07:58 340 3 gusting 8 3.9
2018-Dec-11 07:53 351 3 gusting 9 3.9
2018-Dec-11 07:48 334 3 gusting 9 3.9
2018-Dec-11 07:43 340 3 gusting 9 3.9
2018-Dec-11 07:38 302 4 gusting 9 3.3
2018-Dec-11 07:33 342 3 gusting 8 3.3
2018-Dec-11 07:28 028 3 gusting 7 3.3
2018-Dec-11 07:23 009 4 gusting 8 3.3
2018-Dec-11 07:18 027 3 gusting 8 3.3
2018-Dec-11 07:13 351 3 gusting 9 3.3
2018-Dec-11 07:08 331 3 gusting 9 3.3
2018-Dec-11 07:03 023 4 gusting 9 3.3
2018-Dec-11 06:58 346 3 gusting 8 3.9
2018-Dec-11 06:53 023 3 gusting 9 3.9
2018-Dec-11 06:48 005 3 gusting 9 3.9
2018-Dec-11 06:43 351 3 gusting 8 3.9
2018-Dec-11 06:38 016 2 gusting 6 3.9
2018-Dec-11 06:33 011 2 gusting 6 3.9
2018-Dec-11 06:28 022 2 gusting 8 3.9
2018-Dec-11 06:23 335 3 gusting 9 3.9
2018-Dec-11 06:18 344 4 gusting 9 3.9
2018-Dec-11 06:13 355 2 gusting 8 3.9
2018-Dec-11 06:08 329 2 gusting 8 3.9
2018-Dec-11 06:03 026 3 gusting 10 3.9
2018-Dec-11 05:58 346 4 gusting 10 3.9
2018-Dec-11 05:53 317 3 gusting 8 3.9
2018-Dec-11 05:48 030 3 gusting 10 3.9
2018-Dec-11 05:43 355 4 gusting 10 3.9
2018-Dec-11 05:38 355 5 gusting 10 3.9
2018-Dec-11 05:33 033 5 gusting 12 3.9
2018-Dec-11 05:28 325 5 gusting 12 3.9
2018-Dec-11 05:23 015 5 gusting 12 3.9
2018-Dec-11 05:18 032 4 gusting 11 3.9
2018-Dec-11 05:13 333 4 gusting 11 3.9
2018-Dec-11 05:08 028 3 gusting 9 4.4
2018-Dec-11 05:03 345 3 gusting 7 4.4
2018-Dec-11 04:58 4.4
2018-Dec-11 04:53 338 4 gusting 9 4.4
2018-Dec-11 04:48 320 4 gusting 9 4.4
2018-Dec-11 04:43 323 4 gusting 11 4.4
2018-Dec-11 04:38 313 3 gusting 11 4.4
2018-Dec-11 04:33 331 3 gusting 11 4.4
2018-Dec-11 04:28 281 3 gusting 8 4.4
2018-Dec-11 04:23 322 3 gusting 8 4.4
2018-Dec-11 04:18 350 3 gusting 8 4.4
2018-Dec-11 04:13 319 3 gusting 9 4.4
2018-Dec-11 04:08 282 4 gusting 9 4.4
2018-Dec-11 04:03 009 3 gusting 8 4.4
2018-Dec-11 03:58 306 3 gusting 8 4.4
2018-Dec-11 03:53 355 3 gusting 8 4.4
2018-Dec-11 03:48 015 3 gusting 8 4.4
2018-Dec-11 03:43 315 4 gusting 9 4.4
2018-Dec-11 03:38 340 3 gusting 9 4.4
2018-Dec-11 03:33 333 3 gusting 9 4.4
2018-Dec-11 03:28 350 3 gusting 9 4.4
2018-Dec-11 03:23 315 3 gusting 8 4.4
2018-Dec-11 03:18 005 3 gusting 8 4.4
2018-Dec-11 03:13 044 4 gusting 10 4.4
2018-Dec-11 03:08 337 4 gusting 10 4.4
2018-Dec-11 03:03 034 3 gusting 7 4.4
2018-Dec-11 02:58 067 3 gusting 7 4.4
2018-Dec-11 02:53 294 3 gusting 7 4.4
2018-Dec-11 02:48 348 2 gusting 9 4.4
2018-Dec-11 02:43 005 3 gusting 9 3.9
2018-Dec-11 02:38 015 4 gusting 9 3.9
2018-Dec-11 02:33 301 3 gusting 9 3.9
2018-Dec-11 02:28 306 2 gusting 7 3.9
2018-Dec-11 02:23 351 2 gusting 7 3.9
2018-Dec-11 02:18 313 1 gusting 6 3.9
2018-Dec-11 02:13 028 1 gusting 6 3.9
2018-Dec-11 02:08 047 1 gusting 7 3.9
2018-Dec-11 02:03 317 1 gusting 7 3.9
2018-Dec-11 01:58 005 2 gusting 9 3.9
2018-Dec-11 01:53 005 2 gusting 9 3.9
2018-Dec-11 01:48 350 2 gusting 7 3.3
2018-Dec-11 01:43 311 2 gusting 8 3.3
2018-Dec-11 01:38 341 2 gusting 9 3.3
2018-Dec-11 01:33 040 3 gusting 9 3.3
2018-Dec-11 01:28 340 2 gusting 7 3.3
2018-Dec-11 01:23 005 2 gusting 8 3.3
2018-Dec-11 01:18 034 3 gusting 8 3.3
2018-Dec-11 01:13 265 3 gusting 8 3.3
2018-Dec-11 01:08 037 2 gusting 8 3.3
2018-Dec-11 01:03 339 3 gusting 8 3.3
2018-Dec-11 00:58 005 3 gusting 8 3.3
2018-Dec-11 00:53 269 3 gusting 9 3.9
2018-Dec-11 00:48 348 5 gusting 11 3.9
2018-Dec-11 00:43 017 4 gusting 11 3.9
2018-Dec-11 00:38 011 3 gusting 11 3.9
2018-Dec-11 00:33 344 5 gusting 11 3.9
2018-Dec-11 00:28 349 5 gusting 9 3.9
2018-Dec-11 00:23 334 5 gusting 10 3.9
2018-Dec-11 00:18 321 4 gusting 10 3.9
2018-Dec-11 00:13 336 4 gusting 13 3.9
2018-Dec-11 00:08 342 4 gusting 13 3.9
2018-Dec-11 00:03 335 4 gusting 12 3.9
2018-Dec-10 23:58 333 3 gusting 12 3.9
2018-Dec-10 23:53 348 4 gusting 13 3.3
2018-Dec-10 23:48 015 6 gusting 13 3.3
2018-Dec-10 23:43 320 5 gusting 10 3.3
2018-Dec-10 23:38 350 3 gusting 10 3.3
2018-Dec-10 23:33 038 3 gusting 10 3.3
2018-Dec-10 23:28 038 4 gusting 10 3.3
2018-Dec-10 23:23 351 5 gusting 12 3.3
2018-Dec-10 23:18 333 4 gusting 12 3.3
2018-Dec-10 23:13 3.3
2018-Dec-10 23:08 337 4 gusting 10 3.3
2018-Dec-10 23:03 343 5 gusting 10 3.3
2018-Dec-10 22:58 050 4 gusting 12 3.3
2018-Dec-10 22:53 028 5 gusting 12 3.3
2018-Dec-10 22:47 355 5 gusting 13 3.3
2018-Dec-10 22:43 347 4 gusting 13 3.3
2018-Dec-10 22:37 334 4 gusting 9 3.3
2018-Dec-10 22:33 005 4 gusting 12 3.3
2018-Dec-10 22:28 346 5 gusting 12 3.3
2018-Dec-10 22:22 311 5 gusting 12 3.3
2018-Dec-10 22:17 336 5 gusting 11 3.3
2018-Dec-10 22:12 336 4 gusting 11 3.3
2018-Dec-10 22:07 022 5 gusting 13 3.3
2018-Dec-10 22:02 323 5 gusting 13 3.3
2018-Dec-10 21:57 051 5 gusting 13 3.3
2018-Dec-10 21:52 086 4 gusting 12 3.3
2018-Dec-10 21:47 342 4 gusting 12 3.3
2018-Dec-10 21:42 010 4 gusting 12 3.3
2018-Dec-10 21:37 321 3 gusting 12 3.3
2018-Dec-10 21:32 355 3 gusting 9 3.3
2018-Dec-10 21:27 005 4 gusting 9 3.3
2018-Dec-10 21:22 036 4 gusting 10 3.3
2018-Dec-10 21:17 3.3
2018-Dec-10 21:12 022 4 gusting 16 3.3
2018-Dec-10 21:07 330 3 gusting 9 3.3
2018-Dec-10 21:02 342 4 gusting 12 3.3
2018-Dec-10 20:57 015 4 gusting 12 3.3
2018-Dec-10 20:52 355 5 gusting 13 3.3
2018-Dec-10 20:47 014 6 gusting 13 3.3
2018-Dec-10 20:42 334 6 gusting 14 3.3
2018-Dec-10 20:37 291 6 gusting 14 3.3
2018-Dec-10 20:32 292 5 gusting 10 3.3
2018-Dec-10 20:27 329 5 gusting 16 3.3
2018-Dec-10 20:22 038 5 gusting 16 3.3
2018-Dec-10 20:17 341 5 gusting 13 3.3
2018-Dec-10 20:12 332 5 gusting 13 3.3
2018-Dec-10 20:07 341 4 gusting 10 3.3
2018-Dec-10 20:02 325 5 gusting 10 3.3
2018-Dec-10 19:57 009 5 gusting 13 3.3
2018-Dec-10 19:52 315 6 gusting 13 3.3
2018-Dec-10 19:47 355 6 gusting 14 3.3
2018-Dec-10 19:42 327 5 gusting 14 3.3
2018-Dec-10 19:37 327 6 gusting 14 3.3
2018-Dec-10 19:32 279 6 gusting 14 3.3
2018-Dec-10 19:27 038 6 gusting 13 3.3
2018-Dec-10 19:22 042 6 gusting 15 3.3
2018-Dec-10 19:17 330 6 gusting 15 3.3
2018-Dec-10 19:12 005 6 gusting 13 3.9
2018-Dec-10 19:07 333 6 gusting 13 3.9
2018-Dec-10 19:02 009 7 gusting 15 3.9
2018-Dec-10 18:57 005 6 gusting 15 3.9
2018-Dec-10 18:52 323 6 gusting 14 3.9
2018-Dec-10 18:47 326 6 gusting 13 3.9
2018-Dec-10 18:42 333 6 gusting 13 3.9
2018-Dec-10 18:37 005 6 gusting 18 3.9
2018-Dec-10 18:32 328 7 gusting 18 3.9
2018-Dec-10 18:27 088 7 gusting 17 3.9
2018-Dec-10 18:22 342 8 gusting 19 3.9
2018-Dec-10 18:17 355 6 gusting 19 3.9
2018-Dec-10 18:12 346 6 gusting 14 3.9
2018-Dec-10 18:07 043 7 gusting 13 3.9
2018-Dec-10 18:02 005 7 gusting 17 3.9
2018-Dec-10 17:57 005 7 gusting 17 3.9
2018-Dec-10 17:52 320 6 gusting 15 3.9
2018-Dec-10 17:47 309 6 gusting 19 4.4
2018-Dec-10 17:42 311 6 gusting 19 3.9
2018-Dec-10 17:37 101 6 gusting 15 3.9
2018-Dec-10 17:32 331 6 gusting 13 3.9
2018-Dec-10 17:27 328 6 gusting 17 3.9
2018-Dec-10 17:22 336 6 gusting 17 3.9
2018-Dec-10 17:17 027 6 gusting 16 3.9
2018-Dec-10 17:12 351 6 gusting 16 3.9
2018-Dec-10 17:07 355 6 gusting 13 3.9
2018-Dec-10 17:02 355 7 gusting 19 3.9
2018-Dec-10 16:57 319 7 gusting 19 3.9
2018-Dec-10 16:52 344 6 gusting 18 3.9
2018-Dec-10 16:47 021 6 gusting 14 3.9
2018-Dec-10 16:42 333 6 gusting 13 3.9
2018-Dec-10 16:37 355 7 gusting 13 3.9
2018-Dec-10 16:32 312 6 gusting 13 3.9
2018-Dec-10 16:27 292 6 gusting 13 3.9
2018-Dec-10 16:22 321 5 gusting 14 3.9
2018-Dec-10 16:17 024 6 gusting 14 3.3
2018-Dec-10 16:12 309 6 gusting 13 3.3
2018-Dec-10 16:07 339 6 gusting 17 3.3
2018-Dec-10 16:02 355 7 gusting 17 3.3
2018-Dec-10 15:57 329 6 gusting 17 3.3
2018-Dec-10 15:52 321 6 gusting 17 3.3
2018-Dec-10 15:47 344 6 gusting 13 3.3
2018-Dec-10 15:42 346 6 gusting 17 3.3
2018-Dec-10 15:37 321 7 gusting 17 3.3
2018-Dec-10 15:32 315 6 gusting 15 3.3
2018-Dec-10 15:27 330 6 gusting 13 3.3
2018-Dec-10 15:22 355 6 gusting 13 3.3
2018-Dec-10 15:17 346 6 gusting 13 3.3
2018-Dec-10 15:12 011 6 gusting 13 3.3
2018-Dec-10 15:07 022 6 gusting 13 3.3
2018-Dec-10 15:02 302 6 gusting 14 3.3
2018-Dec-10 14:57 066 6 gusting 14 3.3
2018-Dec-10 14:52 341 5 gusting 13 3.3
2018-Dec-10 14:47 317 5 gusting 13 3.3
2018-Dec-10 14:42 337 6 gusting 13 3.3
2018-Dec-10 14:37 293 6 gusting 13 3.3
2018-Dec-10 14:32 331 6 gusting 13 3.3
2018-Dec-10 14:27 157 6 gusting 14 3.3
2018-Dec-10 14:22 044 6 gusting 14 3.3
2018-Dec-10 14:17 319 6 gusting 13 3.3
2018-Dec-10 14:12 345 6 gusting 13 3.3
2018-Dec-10 14:07 3.3
2018-Dec-10 14:02 317 6 gusting 15 3.3
2018-Dec-10 13:57 334 6 gusting 15 3.3
2018-Dec-10 13:52 350 6 gusting 14 3.3
2018-Dec-10 13:47 024 6 gusting 14 3.3
2018-Dec-10 13:42 010 6 gusting 15 3.3
2018-Dec-10 13:37 313 6 gusting 15 3.3
2018-Dec-10 13:32 340 6 gusting 13 3.3
2018-Dec-10 13:27 307 6 gusting 17 3.3
2018-Dec-10 13:22 302 6 gusting 17 3.3
2018-Dec-10 13:17 355 6 gusting 14 3.3
2018-Dec-10 13:12 338 6 gusting 14 3.3
2018-Dec-10 13:07 014 6 gusting 14 3.3
2018-Dec-10 13:02 355 6 gusting 14 3.3
2018-Dec-10 12:57 308 7 gusting 13 3.3
2018-Dec-10 12:52 310 7 gusting 13 3.3
2018-Dec-10 12:47 318 6 gusting 13 3.3
2018-Dec-10 12:42 325 6 gusting 13 3.3
2018-Dec-10 12:37 316 6 gusting 13 3.3
2018-Dec-10 12:32 335 6 gusting 13 3.3
2018-Dec-10 12:27 313 5 gusting 13 3.3
2018-Dec-10 12:22 349 6 gusting 13 3.3
2018-Dec-10 12:17 021 6 gusting 13 3.3
2018-Dec-10 12:12 338 6 gusting 15 3.3
2018-Dec-10 12:07 015 6 gusting 17 3.3
2018-Dec-10 12:02 103 5 gusting 17 3.9
2018-Dec-10 11:57 327 5 gusting 11 3.9
2018-Dec-10 11:52 327 5 gusting 10 3.9
2018-Dec-10 11:47 350 5 gusting 10 3.9
2018-Dec-10 11:42 311 5 gusting 12 3.9
2018-Dec-10 11:37 328 6 gusting 14 3.9
2018-Dec-10 11:32 011 6 gusting 14 3.9
2018-Dec-10 11:27 348 5 gusting 13 3.9
2018-Dec-10 11:22 082 5 gusting 16 3.9
2018-Dec-10 11:17 323 6 gusting 16 3.9
2018-Dec-10 11:12 318 6 gusting 14 3.9
2018-Dec-10 11:07 045 6 gusting 14 3.9
2018-Dec-10 11:02 044 6 gusting 13 3.9
2018-Dec-10 10:57 3.9
2018-Dec-10 10:52 336 6 gusting 14 3.9
2018-Dec-10 10:47 311 5 gusting 14 3.9
2018-Dec-10 10:42 350 6 gusting 13 3.9
2018-Dec-10 10:40 005 6 gusting 14 3.9
2018-Dec-10 10:32 022 6 gusting 14 3.9
2018-Dec-10 10:27 321 6 gusting 13 3.9
2018-Dec-10 10:22 341 6 gusting 12 3.9
2018-Dec-10 10:17 341 6 gusting 17 3.9
2018-Dec-10 10:12 355 6 gusting 17 3.9
2018-Dec-10 10:07 346 6 gusting 15 3.9
2018-Dec-10 10:02 346 6 gusting 15 4.4
2018-Dec-10 09:57 333 5 gusting 13 4.4
2018-Dec-10 09:52 327 5 gusting 13 4.4
2018-Dec-10 09:47 325 6 gusting 13 4.4
2018-Dec-10 09:42 065 6 gusting 13 4.4
2018-Dec-10 09:37 005 6 gusting 15 4.4
2018-Dec-10 09:32 332 6 gusting 20 4.4
2018-Dec-10 09:27 338 6 gusting 20 4.4
2018-Dec-10 09:22 030 6 gusting 13 4.4
2018-Dec-10 09:17 026 6 gusting 13 4.4
2018-Dec-10 09:12 355 6 gusting 14 5.0
2018-Dec-10 09:07 344 5 gusting 14 5.0
2018-Dec-10 09:02 286 5 gusting 20 5.0
2018-Dec-10 08:57 333 6 gusting 20 5.6
2018-Dec-10 08:52 319 6 gusting 14 5.6
2018-Dec-10 08:47 355 6 gusting 15 5.0
2018-Dec-10 08:42 310 6 gusting 15 5.0
2018-Dec-10 08:37 342 6 gusting 15 5.0
2018-Dec-10 08:32 303 6 gusting 15 5.0
2018-Dec-10 08:27 302 6 gusting 14 5.6
2018-Dec-10 08:22 294 6 gusting 10 5.0
2018-Dec-10 08:17 290 6 gusting 12 5.0
2018-Dec-10 08:12 322 5 gusting 12 5.0
2018-Dec-10 08:07 291 5 gusting 14 5.0
2018-Dec-10 08:02 005 5 gusting 14 5.0
2018-Dec-10 07:57 307 6 gusting 15 5.0
2018-Dec-10 07:52 036 6 gusting 15 5.0
2018-Dec-10 07:47 355 6 gusting 14 5.0
2018-Dec-10 07:42 330 6 gusting 13 5.0
2018-Dec-10 07:37 355 6 gusting 13 5.0
2018-Dec-10 07:32 338 6 gusting 15 5.0
2018-Dec-10 07:27 340 6 gusting 17 5.0
2018-Dec-10 07:22 331 6 gusting 17 4.4
2018-Dec-10 07:17 347 6 gusting 13 4.4
2018-Dec-10 07:12 306 6 gusting 14 4.4
2018-Dec-10 07:07 306 6 gusting 14 4.4
2018-Dec-10 07:02 086 5 gusting 13 5.0
2018-Dec-10 06:57 307 6 gusting 13 5.0
2018-Dec-10 06:52 044 6 gusting 18 5.0
2018-Dec-10 06:47 347 6 gusting 18 5.0
2018-Dec-10 06:42 005 6 gusting 18 5.0
2018-Dec-10 06:37 327 6 gusting 18 5.0
2018-Dec-10 06:32 302 6 gusting 17 5.0
2018-Dec-10 06:27 333 6 gusting 17 5.0
2018-Dec-10 06:22 251 6 gusting 13 5.0
2018-Dec-10 06:17 005 6 gusting 13 5.0
2018-Dec-10 06:12 339 6 gusting 14 5.0
2018-Dec-10 06:07 337 6 gusting 14 5.0
2018-Dec-10 06:02 030 6 gusting 14 5.0
2018-Dec-10 05:57 355 6 gusting 17 5.0
2018-Dec-10 05:52 036 6 gusting 17 5.0
2018-Dec-10 05:47 303 6 gusting 12 5.0
2018-Dec-10 05:42 009 6 gusting 12 5.0
2018-Dec-10 05:37 331 6 gusting 13 5.0
2018-Dec-10 05:32 346 6 gusting 17 5.0
2018-Dec-10 05:27 307 6 gusting 17 5.0
2018-Dec-10 05:22 5.0
2018-Dec-10 05:17 014 6 gusting 15 5.0
2018-Dec-10 05:12 5.0
2018-Dec-10 05:07 327 6 gusting 13 5.0
2018-Dec-10 05:02 012 6 gusting 15 5.0
2018-Dec-10 04:57 343 6 gusting 15 5.0
2018-Dec-10 04:52 037 6 gusting 15 5.0
2018-Dec-10 04:47 295 6 gusting 15 5.0
2018-Dec-10 04:42 327 7 gusting 15 5.0
2018-Dec-10 04:37 338 6 gusting 14 5.0
2018-Dec-10 04:32 315 6 gusting 13 5.0
2018-Dec-10 04:27 030 6 gusting 13 5.6
2018-Dec-10 04:22 309 6 gusting 13 5.6
2018-Dec-10 04:17 320 5 gusting 13 5.6
2018-Dec-10 04:12 030 5 gusting 12 5.6
2018-Dec-10 04:07 286 5 gusting 13 5.6
2018-Dec-10 04:02 095 5 gusting 19 5.6
2018-Dec-10 03:57 6.1
2018-Dec-10 03:52 347 5 gusting 14 6.1
2018-Dec-10 03:47 327 5 gusting 14 6.1
2018-Dec-10 03:42 340 5 gusting 14 6.1
2018-Dec-10 03:37 355 5 gusting 14 6.1
2018-Dec-10 03:32 281 5 gusting 19 6.1
2018-Dec-10 03:27 042 6 gusting 19 6.1
2018-Dec-10 03:22 028 5 gusting 14 6.1
2018-Dec-10 03:17 136 4 gusting 13 6.1
2018-Dec-10 03:12 6.1
2018-Dec-10 03:07 319 4 gusting 13 6.1
2018-Dec-10 03:02 309 4 gusting 13 6.1
2018-Dec-10 02:57 054 4 gusting 13 6.1
2018-Dec-10 02:52 015 4 gusting 13 6.1
2018-Dec-10 02:47 287 4 gusting 13 6.1
2018-Dec-10 02:42 015 4 gusting 12 6.1
2018-Dec-10 02:37 280 4 gusting 12 6.1
2018-Dec-10 02:32 324 4 gusting 12 6.1
2018-Dec-10 02:27 6.1
2018-Dec-10 02:22 309 4 gusting 14 6.1
2018-Dec-10 02:17 131 5 gusting 14 6.1
2018-Dec-10 02:12 005 4 gusting 12 6.1
2018-Dec-10 02:07 355 4 gusting 12 6.1
2018-Dec-10 02:02 233 4 gusting 13 6.1